Regional Weather Roundup
Issued by NWS

Home | Current Version | Previous Version | Text Only | Print | Product List | Glossary On
Versions: 1 2 3 4 5 6 7 8 9 10 11 12 13 14 15 16 17 18 19 20 21 22 23 24 25 26 27 28 29 30 31 32 33 34 35 36 37 38 39 40 41 42 43 44 45 46 47 48 49 50
000
ASUS42 KKEY 201510
RWRKEY

FLORIDA REGIONAL WEATHER ROUNDUP FOR THE FLORIDA KEYS
NATIONAL WEATHER SERVICE KEY WEST FLORIDA
1100 AM EDT WED AUG 20 2014

...SOUTH FLORIDA AND THE KEYS...

CITY           SKY/WX    TMP DP  RH WIND       PRES   REMARKS
FORT MYERS     MOSUNNY   90  74  59 N7        30.09R HX  99
SW REGIONAL AP MOSUNNY   89  74  60 E5        30.10R HX  98
NAPLES         MOSUNNY   90  80  72 VRB6      30.09R HX 107
MIAMI          PTSUNNY   91  75  59 CALM      30.10R HX 101
WEST KENDALL   MOSUNNY   91  74  57 N6        30.10R HX 100
HOMESTEAD      SUNNY     89  74  62 N7        30.09R HAZE    HX  98
MARATHON       MOSUNNY   90  76  63 NE5       30.10R HX 101
BOCA CHICA NAS MOSUNNY   92  75  57 E7        30.09R HX 103
KEY WEST INTL  MOSUNNY   90  75  61 SE8       30.10R HX 100

...INTERNATIONAL WEATHER...

CITY           SKY/WX    TMP DP  RH WIND       PRES   REMARKS
NASSAU BAHAMAS NOT AVBL
CANCUN MEXICO  MOSUNNY   88  77  70 E9        30.04R HX 100
COZUMEL MEXICO PTSUNNY   84  79  84 E12       30.03R HX  96

ADJACENT COASTAL WATERS...

STATION/POSITION TIME  SKY/WX   TEMP    WIND        PRES    WAVE
                                AIR SEA DIR/SP/G            HT/PER
                 (UTC)          (F)     (DEG/KT/KT) (MB)    (FT/S)
PULASKI SHOAL LI 1500            85      90/  5/  6 1019.0R
SAND KEY         1500            86     110/  5/  8 1019.0R
SOMBRERO KEY     1500            86      70/  5/  5 1020.0R
LONG KEY         1400            86 90   30/  1/  2 1019.2R
MOLASSES REEF    1500            86 88   50/  5/  6 1019.3R
FOWEY ROCKS      1500            86 88  110/  3/  4 1019.6R
Buoy 42080       NOT AVBL

$$


USA.gov is the U.S. government's official web portal to all federal, state and local government web resources and services.